Torna al catalogo

ISS

ZARYA

AttivoScienzaVLEO
NORAD 25544·PAYLOAD·🇷🇺 Russia🇺🇸 United States

Lanciato Nov 20, 1998 da Baikonur Cosmodrome

Loading…

Prossimi Passaggi (prossime 24 ore)

TLE

AggiornatoSource: CelesTrak SupGP

Epoca: Sep 14, 2026, 18:00 UTC

1 25544C 98067A   26257.75000000 -.00080519  00000+0 -14525-2 0    22
2 25544  51.6292 216.8251 0004912 141.4219   4.8621 15.49121021    18

Traccia ISS in tempo reale con AllMySat

Download on the App Store